User: anonymous   Login
Location: Cuzcurrita-R�o Tir�n
(42.5415°N, 2.9642°W)
Time: 06:14:36
(UTC+00:00)
Language:

Cosmos 1726 Rocket - Orbit

View from above orbital plane
View from above orbital plane
View from above satellite
View from above satellite

Ground track
Ground track

The orbit data is extracted from the following two-line orbital elements,

1 16496U 86006B   21101.85140780  .00000090  00000-0  78451-5 0  9993
2 16496  82.5237 142.4672 0020199 142.4092  29.0698 14.84176715883102
Epoch (UTC): 11 April 2021 20:26:01
Eccentricity: 0.0020199
inclination: 82.5237°
perigee height: 602 km
apogee height: 630 km
right ascension of ascending node: 142.4672°
argument of perigee: 142.4092°
revolutions per day: 14.84176715
mean anomaly at epoch: 29.0698°
orbit number at epoch: 88310

The dashed part of the orbit path shows where the satellite is in the earth's shadow,  

DLR